sat.trackr.live / text

‹ back to catalog

STARLINK-31553

NORAD 59363 · 2024-060R

PAYLOAD ACTIVE UNKNOWN

§ Identity

Operator
Country
US
Launch date
2024-03-31
Launch site
AFETR
Launch vehicle
Mass (kg)
RCS (m²)

Purposes: comms

External: N2YO · Heavens-Above · Gunter

§ Orbital elements

Epoch: 2026-05-25T03:15:02.885184Z

Period
94.27 min
Inclination
43.0015°
Eccentricity
0.0001157
Mean motion
15.27575805 rev/d
Perigee alt
482.3 km
Apogee alt
483.9 km
Semi-major
6,861.2 km
B*
1.1757e-5
RAAN
181.2477°
Arg perigee
274.6552°
Mean anomaly
85.4168°
Rev number
12,183

§ Raw data

STARLINK-315531 59363U 24060R   26145.13545006  .00000061  00000+0  11757-4 0  99912 59363  43.0015 181.2477 0001157 274.6552  85.4168 15.27575805121838

JSON: /api/v1/satellites/59363 · /tle

For live sub-satellite position, see the globe view (requires WebGL).

§ Visibility from observer

Set your observer location to see the next 7 days of passes ≥ 10°. The values pass through the URL so the page stays shareable.

No JS? Fill the form by hand. The geolocation button needs JavaScript.